owner,sensor,date,latitude,longitude,vertical_datum,wind_speed,wind_to_direction,wind_speed_of_gust,qcFlag 
TCOON,ioos:station:TCOON:006:1,2011-02-01T00:00:00Z,27.8217,-97.2040,0.0,4.2,106.0,5.3,'11111222,11111222,11111222' 
TCOON,ioos:station:TCOON:006:1,2011-02-01T01:00:00Z,27.8217,-97.2040,0.0,4.9,106.0,7.0,'11111222,11111222,11111222' 
TCOON,ioos:station:TCOON:006:1,2011-02-01T02:00:00Z,27.8217,-97.2040,0.0,3.0,90.0,4.1,'11111222,11111222,11111222' 
TCOON,ioos:station:TCOON:006:1,2011-02-01T03:00:00Z,27.8217,-97.2040,0.0,3.0,87.0,4.0,'11111222,11111222,11111222' 
TCOON,ioos:station:TCOON:006:1,2011-02-01T04:00:00Z,27.8217,-97.2040,0.0,3.4,132.0,4.8,'11111222,11111222,11111222' 
TCOON,ioos:station:TCOON:006:1,2011-02-01T05:00:00Z,27.8217,-97.2040,0.0,3.7,102.0,4.6,'11111222,11111222,11111222' 
TCOON,ioos:station:TCOON:006:1,2011-02-01T06:00:00Z,27.8217,-97.2040,0.0,4.9,129.0,6.9,'11111222,11111222,11111222' 
TCOON,ioos:station:TCOON:006:1,2011-02-01T07:00:00Z,27.8217,-97.2040,0.0,5.1,151.0,7.0,'11111222,11111222,11111222' 
TCOON,ioos:station:TCOON:006:1,2011-02-01T08:00:00Z,27.8217,-97.2040,0.0,3.6,159.0,4.9,'11111222,11111222,11111222' 
TCOON,ioos:station:TCOON:006:1,2011-02-01T09:00:00Z,27.8217,-97.2040,0.0,5.9,171.0,7.5,'11111222,11111222,11111222' 
TCOON,ioos:station:TCOON:006:1,2011-02-01T10:00:00Z,27.8217,-97.2040,0.0,5.3,187.0,6.2,'11111222,11111222,11111222' 
TCOON,ioos:station:TCOON:006:1,2011-02-01T11:00:00Z,27.8217,-97.2040,0.0,5.0,236.0,6.3,'11111222,11111222,11111222' 
TCOON,ioos:station:TCOON:006:1,2011-02-01T12:00:00Z,27.8217,-97.2040,0.0,5.4,344.0,9.2,'11111222,11111222,11111222' 
TCOON,ioos:station:TCOON:006:1,2011-02-01T13:00:00Z,27.8217,-97.2040,0.0,5.7,346.0,8.3,'11111222,11111222,11111222' 
TCOON,ioos:station:TCOON:006:1,2011-02-01T14:00:00Z,27.8217,-97.2040,0.0,5.9,350.0,11.4,'11111222,11111222,11111222' 
TCOON,ioos:station:TCOON:006:1,2011-02-01T15:00:00Z,27.8217,-97.2040,0.0,4.8,353.0,10.6,'11111222,11111222,11111222' 
TCOON,ioos:station:TCOON:006:1,2011-02-01T16:00:00Z,27.8217,-97.2040,0.0,6.2,352.0,10.7,'11111222,11111222,11111222' 
TCOON,ioos:station:TCOON:006:1,2011-02-01T17:00:00Z,27.8217,-97.2040,0.0,7.0,353.0,10.9,'11111222,11111222,11111222' 
TCOON,ioos:station:TCOON:006:1,2011-02-01T18:00:00Z,27.8217,-97.2040,0.0,5.7,344.0,10.3,'11111222,11111222,11111222' 
TCOON,ioos:station:TCOON:006:1,2011-02-01T19:00:00Z,27.8217,-97.2040,0.0,7.1,333.0,11.2,'11111222,11111222,11111222' 
TCOON,ioos:station:TCOON:006:1,2011-02-01T20:00:00Z,27.8217,-97.2040,0.0,9.1,347.0,12.5,'11111222,11111222,11111222' 
TCOON,ioos:station:TCOON:006:1,2011-02-01T21:00:00Z,27.8217,-97.2040,0.0,5.8,344.0,8.1,'11111222,11111222,11111222' 
TCOON,ioos:station:TCOON:006:1,2011-02-01T22:00:00Z,27.8217,-97.2040,0.0,5.2,344.0,9.9,'11111222,11111222,11111222' 
TCOON,ioos:station:TCOON:006:1,2011-02-01T23:00:00Z,27.8217,-97.2040,0.0,6.0,346.0,10.7,'11111222,11111222,11111222' 
TCOON,ioos:station:TCOON:006:1,2011-02-02T00:00:00Z,27.8217,-97.2040,0.0,5.1,350.0,8.1,'11111222,11111222,11111222' 
TCOON,ioos:station:TCOON:006:1,2011-02-02T01:00:00Z,27.8217,-97.2040,0.0,5.0,345.0,8.4,'11111222,11111222,11111222' 
TCOON,ioos:station:TCOON:006:1,2011-02-02T02:00:00Z,27.8217,-97.2040,0.0,4.6,351.0,7.3,'11111222,11111222,11111222' 
TCOON,ioos:station:TCOON:006:1,2011-02-02T03:00:00Z,27.8217,-97.2040,0.0,5.1,351.0,9.1,'11111222,11111222,11111222' 
TCOON,ioos:station:TCOON:006:1,2011-02-02T04:00:00Z,27.8217,-97.2040,0.0,4.1,347.0,8.5,'11111222,11111222,11111222' 
TCOON,ioos:station:TCOON:006:1,2011-02-02T05:00:00Z,27.8217,-97.2040,0.0,4.5,344.0,6.6,'11111222,11111222,11111222' 
TCOON,ioos:station:TCOON:006:1,2011-02-02T06:00:00Z,27.8217,-97.2040,0.0,4.1,350.0,6.9,'11111222,11111222,11111222' 
TCOON,ioos:station:TCOON:006:1,2011-02-02T07:00:00Z,27.8217,-97.2040,0.0,5.5,343.0,8.2,'11111222,11111222,11111222' 
TCOON,ioos:station:TCOON:006:1,2011-02-02T08:00:00Z,27.8217,-97.2040,0.0,4.6,345.0,8.2,'11111222,11111222,11111222' 
TCOON,ioos:station:TCOON:006:1,2011-02-02T09:00:00Z,27.8217,-97.2040,0.0,3.4,338.0,8.6,'11111222,11111222,11111222' 
TCOON,ioos:station:TCOON:006:1,2011-02-02T10:00:00Z,27.8217,-97.2040,0.0,4.6,346.0,9.1,'11111222,11111222,11111222' 
TCOON,ioos:station:TCOON:006:1,2011-02-02T11:00:00Z,27.8217,-97.2040,0.0,5.6,350.0,10.7,'11111222,11111222,11111222' 
TCOON,ioos:station:TCOON:006:1,2011-02-02T12:00:00Z,27.8217,-97.2040,0.0,4.9,352.0,9.5,'11111222,11111222,11111222' 
TCOON,ioos:station:TCOON:006:1,2011-02-02T13:00:00Z,27.8217,-97.2040,0.0,4.4,356.0,8.6,'11111222,11111222,11111222' 
TCOON,ioos:station:TCOON:006:1,2011-02-02T14:00:00Z,27.8217,-97.2040,0.0,4.9,353.0,9.8,'11111222,11111222,11111222' 
TCOON,ioos:station:TCOON:006:1,2011-02-02T15:00:00Z,27.8217,-97.2040,0.0,2.9,2.0,9.0,'11111222,11111222,11111222' 
TCOON,ioos:station:TCOON:006:1,2011-02-02T16:00:00Z,27.8217,-97.2040,0.0,1.8,8.0,7.9,'11111222,11111222,11111222' 
TCOON,ioos:station:TCOON:006:1,2011-02-02T17:00:00Z,27.8217,-97.2040,0.0,3.5,359.0,6.3,'11111222,11111222,11111222' 
TCOON,ioos:station:TCOON:006:1,2011-02-02T18:00:00Z,27.8217,-97.2040,0.0,2.2,12.0,8.1,'11111222,11111222,11111222' 
TCOON,ioos:station:TCOON:006:1,2011-02-02T19:00:00Z,27.8217,-97.2040,0.0,4.0,322.0,6.5,'11111222,11111222,11111222' 
TCOON,ioos:station:TCOON:006:1,2011-02-02T20:00:00Z,27.8217,-97.2040,0.0,3.6,344.0,6.6,'11111222,11111222,11111222' 
TCOON,ioos:station:TCOON:006:1,2011-02-02T21:00:00Z,27.8217,-97.2040,0.0,2.1,3.0,5.8,'11111222,11111222,11111222' 
TCOON,ioos:station:TCOON:006:1,2011-02-02T22:00:00Z,27.8217,-97.2040,0.0,4.4,348.0,5.8,'11111222,11111222,11111222' 
TCOON,ioos:station:TCOON:006:1,2011-02-02T23:00:00Z,27.8217,-97.2040,0.0,3.1,359.0,5.4,'11111222,11111222,11111222' 
TCOON,ioos:station:TCOON:006:1,2011-02-03T00:00:00Z,27.8217,-97.2040,0.0,3.2,337.0,6.4,'11111222,11111222,11111222' 
TCOON,ioos:station:TCOON:006:1,2011-02-03T01:00:00Z,27.8217,-97.2040,0.0,4.7,348.0,7.0,'11111222,11111222,11111222' 
TCOON,ioos:station:TCOON:006:1,2011-02-03T02:00:00Z,27.8217,-97.2040,0.0,4.1,354.0,7.2,'11111222,11111222,11111222' 
TCOON,ioos:station:TCOON:006:1,2011-02-03T03:00:00Z,27.8217,-97.2040,0.0,2.2,5.0,7.1,'11111222,11111222,11111222' 
TCOON,ioos:station:TCOON:006:1,2011-02-03T04:00:00Z,27.8217,-97.2040,0.0,4.1,348.0,5.9,'11111222,11111222,11111222' 
TCOON,ioos:station:TCOON:006:1,2011-02-03T05:00:00Z,27.8217,-97.2040,0.0,3.5,350.0,6.8,'11111222,11111222,11111222' 
TCOON,ioos:station:TCOON:006:1,2011-02-03T06:00:00Z,27.8217,-97.2040,0.0,4.3,349.0,7.7,'11111222,11111222,11111222' 
TCOON,ioos:station:TCOON:006:1,2011-02-03T07:00:00Z,27.8217,-97.2040,0.0,4.8,342.0,6.3,'11111222,11111222,11111222' 
TCOON,ioos:station:TCOON:006:1,2011-02-03T08:00:00Z,27.8217,-97.2040,0.0,5.1,349.0,6.6,'11111222,11111222,11111222' 
TCOON,ioos:station:TCOON:006:1,2011-02-03T09:00:00Z,27.8217,-97.2040,0.0,3.0,3.0,7.2,'11111222,11111222,11111222' 
TCOON,ioos:station:TCOON:006:1,2011-02-03T10:00:00Z,27.8217,-97.2040,0.0,3.5,348.0,7.4,'11111222,11111222,11111222' 
TCOON,ioos:station:TCOON:006:1,2011-02-03T11:00:00Z,27.8217,-97.2040,0.0,5.2,352.0,8.6,'11111222,11111222,11111222' 
TCOON,ioos:station:TCOON:006:1,2011-02-03T12:00:00Z,27.8217,-97.2040,0.0,3.0,357.0,8.1,'11111222,11111222,11111222' 
TCOON,ioos:station:TCOON:006:1,2011-02-03T13:00:00Z,27.8217,-97.2040,0.0,3.6,358.0,7.1,'11111222,11111222,11111222' 
TCOON,ioos:station:TCOON:006:1,2011-02-03T14:00:00Z,27.8217,-97.2040,0.0,3.8,348.0,6.6,'11111222,11111222,11111222' 
TCOON,ioos:station:TCOON:006:1,2011-02-03T15:00:00Z,27.8217,-97.2040,0.0,3.2,360.0,6.9,'11111222,11144222,11111222' 
TCOON,ioos:station:TCOON:006:1,2011-02-03T16:00:00Z,27.8217,-97.2040,0.0,4.2,346.0,5.9,'11111222,11111222,11111222' 
TCOON,ioos:station:TCOON:006:1,2011-02-03T17:00:00Z,27.8217,-97.2040,0.0,3.7,345.0,5.4,'11111222,11111222,11111222' 
TCOON,ioos:station:TCOON:006:1,2011-02-03T18:00:00Z,27.8217,-97.2040,0.0,2.7,4.0,6.3,'11111222,11111222,11111222' 
TCOON,ioos:station:TCOON:006:1,2011-02-03T19:00:00Z,27.8217,-97.2040,0.0,2.5,6.0,6.3,'11111222,11111222,11111222' 
TCOON,ioos:station:TCOON:006:1,2011-02-03T20:00:00Z,27.8217,-97.2040,0.0,4.0,349.0,6.1,'11111222,11111222,11111222' 
TCOON,ioos:station:TCOON:006:1,2011-02-03T21:00:00Z,27.8217,-97.2040,0.0,3.9,357.0,5.4,'11111222,11111222,11111222' 
TCOON,ioos:station:TCOON:006:1,2011-02-03T22:00:00Z,27.8217,-97.2040,0.0,1.5,360.0,3.7,'11111222,11144222,11111222' 
TCOON,ioos:station:TCOON:006:1,2011-02-03T23:00:00Z,27.8217,-97.2040,0.0,3.6,341.0,6.1,'11111222,11111222,11111222' 
TCOON,ioos:station:TCOON:006:1,2011-02-04T00:00:00Z,27.8217,-97.2040,0.0,3.7,354.0,5.5,'11111222,11111222,11111222' 
TCOON,ioos:station:TCOON:006:1,2011-02-04T01:00:00Z,27.8217,-97.2040,0.0,2.9,340.0,4.8,'11111222,11111222,11111222' 
TCOON,ioos:station:TCOON:006:1,2011-02-04T02:00:00Z,27.8217,-97.2040,0.0,3.0,342.0,4.0,'11111222,11111222,11111222' 
TCOON,ioos:station:TCOON:006:1,2011-02-04T03:00:00Z,27.8217,-97.2040,0.0,3.7,337.0,4.7,'11111222,11111222,11111222' 
TCOON,ioos:station:TCOON:006:1,2011-02-04T04:00:00Z,27.8217,-97.2040,0.0,3.8,335.0,5.6,'11111222,11111222,11111222' 
TCOON,ioos:station:TCOON:006:1,2011-02-04T05:00:00Z,27.8217,-97.2040,0.0,3.4,333.0,4.5,'11111222,11111222,11111222' 
TCOON,ioos:station:TCOON:006:1,2011-02-04T06:00:00Z,27.8217,-97.2040,0.0,3.1,346.0,4.4,'11111222,11111222,11111222' 
TCOON,ioos:station:TCOON:006:1,2011-02-04T07:00:00Z,27.8217,-97.2040,0.0,2.5,343.0,4.3,'11111222,11111222,11111222' 
TCOON,ioos:station:TCOON:006:1,2011-02-04T08:00:00Z,27.8217,-97.2040,0.0,2.9,342.0,4.2,'11111222,11111222,11111222' 
TCOON,ioos:station:TCOON:006:1,2011-02-04T09:00:00Z,27.8217,-97.2040,0.0,2.2,333.0,4.0,'11111222,11111222,11111222' 
TCOON,ioos:station:TCOON:006:1,2011-02-04T10:00:00Z,27.8217,-97.2040,0.0,2.2,330.0,4.7,'11111222,11111222,11111222' 
TCOON,ioos:station:TCOON:006:1,2011-02-04T11:00:00Z,27.8217,-97.2040,0.0,2.1,327.0,3.3,'11111222,11111222,11111222' 
TCOON,ioos:station:TCOON:006:1,2011-02-04T12:00:00Z,27.8217,-97.2040,0.0,3.0,331.0,5.1,'11111222,11111222,11111222' 
TCOON,ioos:station:TCOON:006:1,2011-02-04T13:00:00Z,27.8217,-97.2040,0.0,2.8,329.0,4.3,'11111222,11111222,11111222' 
TCOON,ioos:station:TCOON:006:1,2011-02-04T14:00:00Z,27.8217,-97.2040,0.0,4.2,308.0,5.2,'11111222,11111222,11111222' 
TCOON,ioos:station:TCOON:006:1,2011-02-04T15:00:00Z,27.8217,-97.2040,0.0,2.3,317.0,4.3,'11111222,11111222,11111222' 
TCOON,ioos:station:TCOON:006:1,2011-02-04T16:00:00Z,27.8217,-97.2040,0.0,3.2,318.0,5.4,'11111222,11111222,11111222' 
TCOON,ioos:station:TCOON:006:1,2011-02-04T17:00:00Z,27.8217,-97.2040,0.0,2.9,308.0,4.9,'11111222,11111222,11111222' 
TCOON,ioos:station:TCOON:006:1,2011-02-04T18:00:00Z,27.8217,-97.2040,0.0,6.8,300.0,8.2,'11111222,11111222,11111222' 
TCOON,ioos:station:TCOON:006:1,2011-02-04T19:00:00Z,27.8217,-97.2040,0.0,6.0,305.0,9.5,'11111222,11111222,11111222' 
TCOON,ioos:station:TCOON:006:1,2011-02-04T20:00:00Z,27.8217,-97.2040,0.0,6.7,305.0,10.3,'11111222,11111222,11111222' 
TCOON,ioos:station:TCOON:006:1,2011-02-04T21:00:00Z,27.8217,-97.2040,0.0,6.0,298.0,7.9,'11111222,11111222,11111222' 
TCOON,ioos:station:TCOON:006:1,2011-02-04T22:00:00Z,27.8217,-97.2040,0.0,5.1,300.0,6.5,'11111222,11111222,11111222' 
TCOON,ioos:station:TCOON:006:1,2011-02-04T23:00:00Z,27.8217,-97.2040,0.0,3.1,304.0,5.7,'11111222,11111222,11111222' 
TCOON,ioos:station:TCOON:006:1,2011-02-05T00:00:00Z,27.8217,-97.2040,0.0,2.4,307.0,3.2,'11111222,11111222,11111222' 
TCOON,ioos:station:TCOON:006:1,2011-02-05T01:00:00Z,27.8217,-97.2040,0.0,2.0,306.0,2.4,'11111222,11111222,11111222' 
TCOON,ioos:station:TCOON:006:1,2011-02-05T02:00:00Z,27.8217,-97.2040,0.0,2.6,305.0,3.4,'11111222,11111222,11111222' 
TCOON,ioos:station:TCOON:006:1,2011-02-05T03:00:00Z,27.8217,-97.2040,0.0,2.1,299.0,2.4,'11111222,11111222,11111222' 
TCOON,ioos:station:TCOON:006:1,2011-02-05T04:00:00Z,27.8217,-97.2040,0.0,2.5,280.0,3.3,'11111222,11111222,11111222' 
TCOON,ioos:station:TCOON:006:1,2011-02-05T05:00:00Z,27.8217,-97.2040,0.0,4.4,255.0,5.2,'11111222,11111222,11111222' 
TCOON,ioos:station:TCOON:006:1,2011-02-05T06:00:00Z,27.8217,-97.2040,0.0,3.2,285.0,4.5,'11111222,11111222,11111222' 
TCOON,ioos:station:TCOON:006:1,2011-02-05T07:00:00Z,27.8217,-97.2040,0.0,5.2,268.0,5.7,'11111222,11111222,11111222' 
TCOON,ioos:station:TCOON:006:1,2011-02-05T08:00:00Z,27.8217,-97.2040,0.0,3.6,279.0,4.4,'11111222,11111222,11111222' 
TCOON,ioos:station:TCOON:006:1,2011-02-05T09:00:00Z,27.8217,-97.2040,0.0,4.6,233.0,5.1,'11111222,11111222,11111222' 
TCOON,ioos:station:TCOON:006:1,2011-02-05T10:00:00Z,27.8217,-97.2040,0.0,7.0,233.0,8.7,'11111222,11111222,11111222' 
TCOON,ioos:station:TCOON:006:1,2011-02-05T11:00:00Z,27.8217,-97.2040,0.0,7.6,237.0,9.4,'11111222,11111222,11111222' 
TCOON,ioos:station:TCOON:006:1,2011-02-05T12:00:00Z,27.8217,-97.2040,0.0,6.7,234.0,8.1,'11111222,11111222,11111222' 
TCOON,ioos:station:TCOON:006:1,2011-02-05T13:00:00Z,27.8217,-97.2040,0.0,6.8,235.0,7.8,'11111222,11111222,11111222' 
TCOON,ioos:station:TCOON:006:1,2011-02-05T14:00:00Z,27.8217,-97.2040,0.0,5.4,240.0,6.7,'11111222,11111222,11111222' 
TCOON,ioos:station:TCOON:006:1,2011-02-05T15:00:00Z,27.8217,-97.2040,0.0,5.6,229.0,8.4,'11111222,11111222,11111222' 
TCOON,ioos:station:TCOON:006:1,2011-02-05T16:00:00Z,27.8217,-97.2040,0.0,4.6,217.0,6.2,'11111222,11111222,11111222' 
TCOON,ioos:station:TCOON:006:1,2011-02-05T17:00:00Z,27.8217,-97.2040,0.0,4.7,199.0,5.2,'11111222,11111222,11111222' 
TCOON,ioos:station:TCOON:006:1,2011-02-05T18:00:00Z,27.8217,-97.2040,0.0,3.8,177.0,5.0,'11111222,11111222,11111222' 
TCOON,ioos:station:TCOON:006:1,2011-02-05T19:00:00Z,27.8217,-97.2040,0.0,3.5,166.0,4.3,'11111222,11111222,11111222' 
TCOON,ioos:station:TCOON:006:1,2011-02-05T20:00:00Z,27.8217,-97.2040,0.0,3.6,156.0,4.5,'11111222,11111222,11111222' 
TCOON,ioos:station:TCOON:006:1,2011-02-05T21:00:00Z,27.8217,-97.2040,0.0,2.8,127.0,3.4,'11111222,11111222,11111222' 
TCOON,ioos:station:TCOON:006:1,2011-02-05T22:00:00Z,27.8217,-97.2040,0.0,4.5,161.0,5.9,'11111222,11111222,11111222' 
TCOON,ioos:station:TCOON:006:1,2011-02-05T23:00:00Z,27.8217,-97.2040,0.0,4.8,163.0,6.2,'11111222,11111222,11111222' 
TCOON,ioos:station:TCOON:006:1,2011-02-06T00:00:00Z,27.8217,-97.2040,0.0,4.4,155.0,5.6,'11111222,11111222,11111222' 
TCOON,ioos:station:TCOON:006:1,2011-02-06T01:00:00Z,27.8217,-97.2040,0.0,3.9,161.0,5.8,'11111222,11111222,11111222' 
TCOON,ioos:station:TCOON:006:1,2011-02-06T02:00:00Z,27.8217,-97.2040,0.0,4.4,167.0,5.6,'11111222,11111222,11111222' 
TCOON,ioos:station:TCOON:006:1,2011-02-06T03:00:00Z,27.8217,-97.2040,0.0,4.6,193.0,5.7,'11111222,11111222,11111222' 
TCOON,ioos:station:TCOON:006:1,2011-02-06T04:00:00Z,27.8217,-97.2040,0.0,5.6,192.0,6.4,'11111222,11111222,11111222' 
TCOON,ioos:station:TCOON:006:1,2011-02-06T05:00:00Z,27.8217,-97.2040,0.0,3.9,198.0,5.0,'11111222,11111222,11111222' 
TCOON,ioos:station:TCOON:006:1,2011-02-06T06:00:00Z,27.8217,-97.2040,0.0,3.9,202.0,5.0,'11111222,11111222,11111222' 
TCOON,ioos:station:TCOON:006:1,2011-02-06T07:00:00Z,27.8217,-97.2040,0.0,4.2,204.0,4.7,'11111222,11111222,11111222' 
TCOON,ioos:station:TCOON:006:1,2011-02-06T08:00:00Z,27.8217,-97.2040,0.0,2.7,216.0,3.5,'11111222,11111222,11111222' 
TCOON,ioos:station:TCOON:006:1,2011-02-06T09:00:00Z,27.8217,-97.2040,0.0,3.0,213.0,3.6,'11111222,11111222,11111222' 
TCOON,ioos:station:TCOON:006:1,2011-02-06T10:00:00Z,27.8217,-97.2040,0.0,2.6,160.0,3.0,'11111222,11111222,11111222' 
TCOON,ioos:station:TCOON:006:1,2011-02-06T11:00:00Z,27.8217,-97.2040,0.0,1.8,177.0,2.2,'11111222,11111222,11111222' 
TCOON,ioos:station:TCOON:006:1,2011-02-06T12:00:00Z,27.8217,-97.2040,0.0,2.3,220.0,2.5,'11111222,11111222,11111222' 
TCOON,ioos:station:TCOON:006:1,2011-02-06T13:00:00Z,27.8217,-97.2040,0.0,3.7,202.0,4.9,'11111222,11111222,11111222' 
TCOON,ioos:station:TCOON:006:1,2011-02-06T14:00:00Z,27.8217,-97.2040,0.0,5.0,207.0,6.1,'11111222,11111222,11111222' 
TCOON,ioos:station:TCOON:006:1,2011-02-06T15:00:00Z,27.8217,-97.2040,0.0,4.3,206.0,5.5,'11111222,11111222,11111222' 
TCOON,ioos:station:TCOON:006:1,2011-02-06T16:00:00Z,27.8217,-97.2040,0.0,4.9,199.0,6.0,'11111222,11111222,11111222' 
TCOON,ioos:station:TCOON:006:1,2011-02-06T17:00:00Z,27.8217,-97.2040,0.0,4.4,205.0,7.1,'11111222,11111222,11111222' 
TCOON,ioos:station:TCOON:006:1,2011-02-06T18:00:00Z,27.8217,-97.2040,0.0,4.3,180.0,6.7,'11111222,11111222,11111222' 
TCOON,ioos:station:TCOON:006:1,2011-02-06T19:00:00Z,27.8217,-97.2040,0.0,5.2,171.0,7.0,'11111222,11111222,11111222' 
TCOON,ioos:station:TCOON:006:1,2011-02-06T20:00:00Z,27.8217,-97.2040,0.0,5.2,168.0,6.4,'11111222,11111222,11111222' 
TCOON,ioos:station:TCOON:006:1,2011-02-06T21:00:00Z,27.8217,-97.2040,0.0,5.0,156.0,6.1,'11111222,11111222,11111222' 
TCOON,ioos:station:TCOON:006:1,2011-02-06T22:00:00Z,27.8217,-97.2040,0.0,4.7,165.0,6.0,'11111222,11111222,11111222' 
TCOON,ioos:station:TCOON:006:1,2011-02-06T23:00:00Z,27.8217,-97.2040,0.0,3.9,167.0,4.9,'11111222,11111222,11111222' 
TCOON,ioos:station:TCOON:006:1,2011-02-07T00:00:00Z,27.8217,-97.2040,0.0,0.5,201.0,1.3,'11111222,11111222,11111222' 
TCOON,ioos:station:TCOON:006:1,2011-02-07T01:00:00Z,27.8217,-97.2040,0.0,0.6,260.0,1.0,'11111222,11111222,11111222' 
TCOON,ioos:station:TCOON:006:1,2011-02-07T02:00:00Z,27.8217,-97.2040,0.0,1.0,57.0,1.1,'11111222,11111222,11111222' 
TCOON,ioos:station:TCOON:006:1,2011-02-07T03:00:00Z,27.8217,-97.2040,0.0,0.6,225.0,1.0,'11111222,11111222,11111222' 
TCOON,ioos:station:TCOON:006:1,2011-02-07T04:00:00Z,27.8217,-97.2040,0.0,5.4,316.0,8.0,'11111222,11111222,11111222' 
TCOON,ioos:station:TCOON:006:1,2011-02-07T05:00:00Z,27.8217,-97.2040,0.0,2.7,12.0,7.6,'11111222,11111222,11111222' 
TCOON,ioos:station:TCOON:006:1,2011-02-07T06:00:00Z,27.8217,-97.2040,0.0,5.2,354.0,8.5,'11111222,11111222,11111222' 
TCOON,ioos:station:TCOON:006:1,2011-02-07T07:00:00Z,27.8217,-97.2040,0.0,7.0,349.0,10.0,'11111222,11111222,11111222' 
TCOON,ioos:station:TCOON:006:1,2011-02-07T08:00:00Z,27.8217,-97.2040,0.0,5.7,341.0,9.3,'11111222,11111222,11111222' 
TCOON,ioos:station:TCOON:006:1,2011-02-07T09:00:00Z,27.8217,-97.2040,0.0,5.2,342.0,9.3,'11111222,11111222,11111222' 
TCOON,ioos:station:TCOON:006:1,2011-02-07T10:00:00Z,27.8217,-97.2040,0.0,4.3,332.0,6.8,'11111222,11111222,11111222' 
TCOON,ioos:station:TCOON:006:1,2011-02-07T11:00:00Z,27.8217,-97.2040,0.0,5.0,328.0,8.1,'11111222,11111222,11111222' 
TCOON,ioos:station:TCOON:006:1,2011-02-07T12:00:00Z,27.8217,-97.2040,0.0,4.1,328.0,8.9,'11111222,11111222,11111222' 
TCOON,ioos:station:TCOON:006:1,2011-02-07T13:00:00Z,27.8217,-97.2040,0.0,3.3,336.0,5.4,'11111222,11111222,11111222' 
TCOON,ioos:station:TCOON:006:1,2011-02-07T14:00:00Z,27.8217,-97.2040,0.0,3.9,320.0,7.9,'11111222,11111222,11111222' 
TCOON,ioos:station:TCOON:006:1,2011-02-07T15:00:00Z,27.8217,-97.2040,0.0,6.5,330.0,8.3,'11111222,11111222,11111222' 
TCOON,ioos:station:TCOON:006:1,2011-02-07T16:00:00Z,27.8217,-97.2040,0.0,4.5,316.0,8.7,'11111222,11111222,11111222' 
TCOON,ioos:station:TCOON:006:1,2011-02-07T17:00:00Z,27.8217,-97.2040,0.0,4.3,344.0,8.8,'11111222,11111222,11111222' 
TCOON,ioos:station:TCOON:006:1,2011-02-07T18:00:00Z,27.8217,-97.2040,0.0,5.1,333.0,9.1,'11111222,11111222,11111222' 
TCOON,ioos:station:TCOON:006:1,2011-02-07T19:00:00Z,27.8217,-97.2040,0.0,4.7,305.0,9.0,'11111222,11111222,11111222' 
TCOON,ioos:station:TCOON:006:1,2011-02-07T20:00:00Z,27.8217,-97.2040,0.0,4.3,342.0,7.0,'11111222,11111222,11111222' 
TCOON,ioos:station:TCOON:006:1,2011-02-07T21:00:00Z,27.8217,-97.2040,0.0,4.6,309.0,8.1,'11111222,11111222,11111222' 
TCOON,ioos:station:TCOON:006:1,2011-02-07T22:00:00Z,27.8217,-97.2040,0.0,3.2,346.0,5.1,'11111222,11111222,11111222' 
TCOON,ioos:station:TCOON:006:1,2011-02-07T23:00:00Z,27.8217,-97.2040,0.0,1.4,2.0,2.2,'11111222,11111222,11111222' 
TCOON,ioos:station:TCOON:006:1,2011-02-08T00:00:00Z,27.8217,-97.2040,0.0,1.0,35.0,1.9,'11111222,11111222,11111222' 
TCOON,ioos:station:TCOON:006:1,2011-02-08T01:00:00Z,27.8217,-97.2040,0.0,1.1,77.0,2.4,'11111222,11111222,11111222' 
TCOON,ioos:station:TCOON:006:1,2011-02-08T02:00:00Z,27.8217,-97.2040,0.0,1.9,78.0,2.3,'11111222,11111222,11111222' 
TCOON,ioos:station:TCOON:006:1,2011-02-08T03:00:00Z,27.8217,-97.2040,0.0,1.9,66.0,3.0,'11111222,11111222,11111222' 
TCOON,ioos:station:TCOON:006:1,2011-02-08T04:00:00Z,27.8217,-97.2040,0.0,2.4,81.0,3.0,'11111222,11111222,11111222' 
TCOON,ioos:station:TCOON:006:1,2011-02-08T05:00:00Z,27.8217,-97.2040,0.0,3.1,79.0,3.7,'11111222,11111222,11111222' 
TCOON,ioos:station:TCOON:006:1,2011-02-08T06:00:00Z,27.8217,-97.2040,0.0,3.0,94.0,4.6,'11111222,11111222,11111222' 
TCOON,ioos:station:TCOON:006:1,2011-02-08T07:00:00Z,27.8217,-97.2040,0.0,2.9,99.0,4.6,'11111222,11111222,11111222' 
TCOON,ioos:station:TCOON:006:1,2011-02-08T08:00:00Z,27.8217,-97.2040,0.0,2.2,117.0,3.5,'11111222,11111222,11111222' 
TCOON,ioos:station:TCOON:006:1,2011-02-08T09:00:00Z,27.8217,-97.2040,0.0,1.9,103.0,3.4,'11111222,11111222,11111222' 
TCOON,ioos:station:TCOON:006:1,2011-02-08T10:00:00Z,27.8217,-97.2040,0.0,2.5,107.0,4.4,'11111222,11111222,11111222' 
TCOON,ioos:station:TCOON:006:1,2011-02-08T11:00:00Z,27.8217,-97.2040,0.0,2.5,98.0,3.7,'11111222,11111222,11111222' 
TCOON,ioos:station:TCOON:006:1,2011-02-08T12:00:00Z,27.8217,-97.2040,0.0,2.2,108.0,3.3,'11111222,11111222,11111222' 
TCOON,ioos:station:TCOON:006:1,2011-02-08T13:00:00Z,27.8217,-97.2040,0.0,2.2,113.0,3.8,'11111222,11111222,11111222' 
TCOON,ioos:station:TCOON:006:1,2011-02-08T14:00:00Z,27.8217,-97.2040,0.0,2.6,121.0,5.2,'11111222,11111222,11111222' 
TCOON,ioos:station:TCOON:006:1,2011-02-08T15:00:00Z,27.8217,-97.2040,0.0,4.9,130.0,7.2,'11111222,11111222,11111222' 
TCOON,ioos:station:TCOON:006:1,2011-02-08T16:00:00Z,27.8217,-97.2040,0.0,5.5,125.0,7.6,'11111222,11111222,11111222' 
TCOON,ioos:station:TCOON:006:1,2011-02-08T17:00:00Z,27.8217,-97.2040,0.0,6.3,124.0,7.9,'11111222,11111222,11111222' 
TCOON,ioos:station:TCOON:006:1,2011-02-08T18:00:00Z,27.8217,-97.2040,0.0,6.6,125.0,9.8,'11111222,11111222,11111222' 
TCOON,ioos:station:TCOON:006:1,2011-02-08T19:00:00Z,27.8217,-97.2040,0.0,6.4,128.0,8.2,'11111222,11111222,11111222' 
TCOON,ioos:station:TCOON:006:1,2011-02-08T20:00:00Z,27.8217,-97.2040,0.0,6.1,126.0,8.5,'11111222,11111222,11111222' 
TCOON,ioos:station:TCOON:006:1,2011-02-08T21:00:00Z,27.8217,-97.2040,0.0,4.8,118.0,7.3,'11111222,11111222,11111222' 
TCOON,ioos:station:TCOON:006:1,2011-02-08T22:00:00Z,27.8217,-97.2040,0.0,5.2,121.0,6.2,'11111222,11111222,11111222' 
TCOON,ioos:station:TCOON:006:1,2011-02-08T23:00:00Z,27.8217,-97.2040,0.0,5.1,119.0,6.9,'11111222,11111222,11111222' 
TCOON,ioos:station:TCOON:006:1,2011-02-09T00:00:00Z,27.8217,-97.2040,0.0,5.9,127.0,7.4,'11111222,11111222,11111222' 
TCOON,ioos:station:TCOON:006:1,2011-02-09T01:00:00Z,27.8217,-97.2040,0.0,4.3,118.0,5.9,'11111222,11111222,11111222' 
TCOON,ioos:station:TCOON:006:1,2011-02-09T02:00:00Z,27.8217,-97.2040,0.0,6.2,135.0,8.5,'11111222,11111222,11111222' 
TCOON,ioos:station:TCOON:006:1,2011-02-09T03:00:00Z,27.8217,-97.2040,0.0,6.4,145.0,7.9,'11111222,11111222,11111222' 
TCOON,ioos:station:TCOON:006:1,2011-02-09T04:00:00Z,27.8217,-97.2040,0.0,6.4,141.0,7.9,'11111222,11111222,11111222' 
TCOON,ioos:station:TCOON:006:1,2011-02-09T05:00:00Z,27.8217,-97.2040,0.0,6.0,133.0,7.2,'11111222,11111222,11111222' 
TCOON,ioos:station:TCOON:006:1,2011-02-09T06:00:00Z,27.8217,-97.2040,0.0,5.0,138.0,6.0,'11111222,11111222,11111222' 
TCOON,ioos:station:TCOON:006:1,2011-02-09T07:00:00Z,27.8217,-97.2040,0.0,3.4,115.0,4.7,'11111222,11111222,11111222' 
TCOON,ioos:station:TCOON:006:1,2011-02-09T08:00:00Z,27.8217,-97.2040,0.0,5.0,136.0,6.2,'11111222,11111222,11111222' 
TCOON,ioos:station:TCOON:006:1,2011-02-09T09:00:00Z,27.8217,-97.2040,0.0,2.9,109.0,4.4,'11111222,11111222,11111222' 
TCOON,ioos:station:TCOON:006:1,2011-02-09T10:00:00Z,27.8217,-97.2040,0.0,2.3,95.0,3.4,'11111222,11111222,11111222' 
TCOON,ioos:station:TCOON:006:1,2011-02-09T11:00:00Z,27.8217,-97.2040,0.0,1.5,20.0,2.6,'11111222,11111222,11111222' 